Weather in Manzanillo

Cuba     20°20′08″N   77°07′21″W
temp.,
°C
wind,
m/s
gust,
m/s
humid.,
%
clouds,
%
prec.,
mm/h
press.,
hPa
HPBL,
m
3 march, wed
wed301:00+20ssw11853 0.0 101624
04:00+20ssw11910 0.0 101524
07:00+21se01870 0.0 101625
10:00+29wnw01551 0.0 1017954
13:00+32wnw544416 0.0 10161608
16:00+32wsw334324 0.0 10141610
19:00+24sw347012 0.0 101588
22:00+21sw23853 0.0 101775
4 march, thu
thu401:00+21sse11882 0.0 101625
04:00+20sse22870 0.0 101526
07:00+21s12830 0.0 101627
10:00+30wnw12427 0.0 10171374
13:00+31w544028 0.0 10151791
16:00+30wsw664347 0.0 10131660
19:00+24wsw466924 0.0 1014183
22:00+21wsw22810 0.0 101551
5 march, fri
fri501:00+20s22810 0.0 101436
04:00+20sse11870 0.0 101325
07:00+20e11870 0.0 101433
10:00+28nne21520 0.0 10151018
13:00+32nw43350 0.0 10132033
16:00+30wnw554242 0.0 10121314
19:00+24wsw346632 0.1 101394
22:00+22e128014 0.1 101425
6 march, sat
sat601:00+21e12839 0.1 101326
04:00+20e12900 0.0 101332
07:00+20se11860 0.0 101448
10:00+30w12460 0.0 10151098
13:00+33wsw44311 0.0 10132367
16:00+31wsw56357 0.0 10121646
19:00+24wsw46603 0.0 1013173
22:00+22ssw34704 0.0 101576
7 march, sun
sun701:00+20sse11723 0.0 101424
04:00+20sse22730 0.0 101424
07:00+21se22740 0.0 101638
10:00+29nnw21460 0.0 10181163
13:00+33nw44350 0.0 10152120
16:00+31w554443 0.0 10141206
19:00+24nw236932 0.0 101662
22:00+22ene35800 0.1 1018145